AirNav   SIMCOM
 
 1576 users online  

NY04 East Arcade Airport
Arcade, New York, USA

GOING TO ARCADE?


FAA INFORMATION EFFECTIVE 14 SEPTEMBER 2017

Location

FAA Identifier: NY04
Lat/Long: 42-35-08.2230N / 078-20-57.0570W
42-35.137050N / 078-20.950950W
42.5856175 / -78.3491825
(estimated)
Elevation: 1830 ft. / 558 m (estimated)
Variation: 10W (1985)
From city: 6 miles NE of ARCADE, NY
Time zone: UTC -4 (UTC -5 during Standard Time)
Zip code: 14009

Airport Operations

Airport use: Private use. Permission required prior to landing
Activation date: 11/1990
Control tower: no
ARTCC: CLEVELAND CENTER
FSS: BUFFALO FLIGHT SERVICE STATION
Attendance: IREG
Segmented circle: no

Nearby radio navigation aids

VOR radial/distance  VOR name  Freq  Var
BUFr156/24.4BUFFALO VOR/DME116.4008W
GEEr250/31.0GENESEO VOR/DME108.2009W
ELZr341/33.6WELLSVILLE VORTAC111.4009W

Airport Services

Runway Information

Runway 10/28

Dimensions: 2300 x 100 ft. / 701 x 30 m
Surface: turf
RUNWAY 10  RUNWAY 28
Traffic pattern: leftleft

Airport Ownership and Management from official FAA records

Ownership: Privately-owned
Owner: EAST ARCADE LLC
10192 BOSTON STATE ROAD
BOSTON, NY 14025
Phone 716-941-3699
Manager: WILLIAM PAPICH
10192 BOSTON STATE ROAD
BOSTON, NY 14025
Phone 716-949-6343

Airport Operational Statistics

Aircraft based on the field: 2
Single engine airplanes: 1
Multi engine airplanes: 1
    

Instrument Procedures

There are no published instrument procedures at NY04.

Some nearby airports with instrument procedures:

KOLE - Cattaraugus County-Olean Airport (21 nm S)
9G0 - Buffalo Airfield (23 nm NW)
9G3 - Akron Airport (27 nm N)
KBUF - Buffalo Niagara International Airport (27 nm NW)
KGVQ - Genesee County Airport (28 nm N)
 
Loc | Ops | Rwys | IFR | FBO | Links
Com | Nav | Svcs | Stats | Notes


 
Area around NY04 (East Arcade Airport)
 
Road maps at: MapQuest Bing Google
 
Aerial photo
No photo
 
Sectional chart

 
Airport distance calculator
Flying to East Arcade Airport? Find the distance to fly.

From to NY04

Sunrise and sunset
Times for 26-Sep-2017
 Local
(UTC-4)
 Zulu
(UTC)
Morning civil twilight06:3810:38
Sunrise07:0611:06
Sunset19:0323:03
Evening civil twilight19:3223:32

Current date and time
Zulu (UTC)  26-Sep-2017 18:22:47
Local (UTC-4)  26-Sep-2017 14:22:47
 
METAR
KOLE 
21nm S 
261735Z AUTO 00000KT 10SM CLR 27/18 A3008 RMK AO2
KBUF 
27nm NW 
261754Z 24007KT 200V280 10SM CLR 31/18 A2999 RMK AO2 SLP149 T03060183 10306 20200 58011
KDSV 
28nm E 
261754Z AUTO 32004KT 10SM CLR 32/18 A2999 RMK AO2 SLP158 T03220183 10322 20194 58017
KELZ 
33nm SE 
261756Z AUTO 20006KT 10SM CLR 30/16 A3009 RMK AO2 SLP171 T03000161 10306 20194 58012
KIAG 
41nm NW 
261753Z 23007KT 10SM CLR 32/18 A2998 RMK AO2 SLP144 T03170178 10322 20217 58012
KDKK 
42nm W 
261753Z AUTO 29008KT 10SM CLR 28/18 A3000 RMK AO2 SLP154 T02830178 10289 20189 58009 $
TAF
KBUF 
27nm NW 
261731Z 2618/2718 24007KT P6SM FEW045 FEW250 FM270000 20005KT P6SM FEW250 FM271400 22010KT P6SM FEW250 FM271600 23014G22KT P6SM SCT250
NOTAMs
Click for the latest NOTAMs
NOTAMs are issued by the DoD/FAA and will open in a separate window not controlled by AirNav.

 

 
 

Would you like to see your business listed on this page?

 If your business provides an interesting product or service to pilots, flight crews, aircraft, or users of the East Arcade Airport, you should consider listing it here.  To start the listing process, click on the button below
 
Add a business
 

Other Pages about East Arcade Airport

Update a link
 
Copyright © AirNav, LLC. All rights reserved. Privacy Policy  Contact